Torna al catalogo

STARLINK-5625

AttivoComunicazioniVLEO
NORAD 55368·PAYLOAD·🇺🇸 United States

Lanciato Jan 26, 2023 da Cape Canaveral Space Force Station

Loading…

Prossimi Passaggi (prossime 24 ore)

TLE

AggiornatoSource: CelesTrak SupGP

Epoca: Sep 14, 2026, 20:48 UTC

1 55368C 23013AP  26257.86715278 -.00053648  00000+0 -19425-2 0  2579
2 55368  43.0034 300.1239 0001709 292.8175 221.9039 15.27614899    11

Traccia STARLINK-5625 in tempo reale con AllMySat

Download on the App Store